Home > Weather > Ushuaia > Past weeks

Flag for Argentina Weather for the Past 2 Weeks in Ushuaia, Tierra del Fuego, Argentina

Now
48 °F

Rain. Overcast.


Feels Like: 40 °F
Forecast: 42 / 48 °F
Wind: 24 mph from Southwest

Location: Ushuaia Aerodrome

Current Time: Feb 9, 2016 at 3:22:10 AM

Latest Report: Feb 9, 2016 at 2:00 AM


Visibility: N/A

Pressure: 29.12 "Hg

Humidity: 71%

Dew point: 39 °F

Location of UshuaiaLocation

Historic Weather in Ushuaia — Graph

°F

Ushuaia Temperature Yesterday

Maximum temperature yesterday: 55 °F (at 12:00 PM)
Minimum temperature yesterday: 48 °F (at 6:00 AM)
Average temperature yesterday: 51 °F

High & Low Weather Summary for the Past Weeks

 TemperatureHumidityPressure
High68 °F (Feb 6, 3:00 PM)100% (Feb 1, 2:00 AM)30.12 "Hg (Feb 1, 2:00 AM)
Low34 °F (Feb 4, 1:00 PM)36% (Jan 30, 1:00 PM)29.09 "Hg (Jan 25, 2:00 AM)
Average52 °F68%29.69 "Hg
* Reported Jan 25 2:00 AM — Feb 9 2:00 AM, Ushuaia, Weather by CustomWeather, © 2016

Note: Actual official high and low records may vary slightly from our data, if they occured in-between our weather recording intervals... More about our weather records

Advertising

Ushuaia Weather History for the Previous 24 Hours

 ConditionsComfort  
Time TempWeatherWind HumidityBarometerVisibility
2:00 AM
Tue, Feb 9
48 °FRain. Overcast.24 mph71%29.12 "HgN/A
1:00 AM50 °FPassing clouds.5 mph67%29.12 "HgN/A
12:00 AM50 °FScattered showers. Passing clouds.9 mph67%29.15 "HgN/A
11:00 PM
Mon, Feb 8
52 °FPassing clouds.13 mph54%29.18 "HgN/A
10:00 PM50 °FMostly cloudy.No wind71%29.21 "HgN/A
9:00 PM50 °FMostly cloudy.No wind71%29.24 "HgN/A
8:00 PM50 °FMostly cloudy.No wind71%29.24 "HgN/A
7:00 PM50 °FBroken clouds.23 mph71%29.27 "HgN/A
6:00 PM50 °FMore clouds than sun.25 mph67%29.27 "HgN/A
5:00 PM52 °FScattered clouds.25 mph58%29.27 "HgN/A
4:00 PM54 °FScattered clouds.28 mph58%29.27 "HgN/A
3:00 PM55 °FScattered clouds.23 mph47%29.30 "HgN/A
2:00 PM52 °FPartly sunny.26 mph62%29.30 "HgN/A
1:00 PM55 °FPartly sunny.N/A63%29.30 "HgN/A
12:00 PM55 °FPartly sunny.18 mph67%29.30 "HgN/A
11:00 AM54 °FPartly sunny.20 mph67%29.30 "HgN/A
10:00 AM52 °FPartly sunny.18 mph77%29.30 "HgN/A
9:00 AM50 °FPartly sunny.22 mph82%29.30 "HgN/A
8:00 AM50 °FPartly sunny.2 mph88%29.30 "HgN/A
7:00 AM48 °FScattered clouds.2 mph87%29.30 "HgN/A
6:00 AM48 °FScattered clouds.3 mph87%29.27 "HgN/A
5:00 AM50 °FPassing clouds.9 mph82%29.27 "HgN/A
4:00 AM50 °FPassing clouds.7 mph76%29.24 "HgN/A
3:00 AM50 °FPassing clouds.8 mph82%29.27 "HgN/A
Weather by CustomWeather, © 2016

See weather overviewHow to use our weather pages